Year,Month,Day,Hour,Minute,Value (Times are PST for temperature in C)
2016,08,17,00,00,16.70
2016,08,17,00,01,16.70
2016,08,17,00,02,16.70
2016,08,17,00,03,16.70
2016,08,17,00,04,16.70
2016,08,17,00,05,16.70
2016,08,17,00,06,16.70
2016,08,17,00,07,16.70
2016,08,17,00,08,16.70
2016,08,17,00,09,16.70
2016,08,17,00,10,16.70
2016,08,17,00,11,16.70
2016,08,17,00,12,16.70
2016,08,17,00,13,16.60
2016,08,17,00,14,16.60
2016,08,17,00,15,16.60
2016,08,17,00,16,16.60
2016,08,17,00,17,16.60
2016,08,17,00,18,16.60
2016,08,17,00,19,16.60
2016,08,17,00,20,16.50
2016,08,17,00,21,16.40
2016,08,17,00,22,16.40
2016,08,17,00,23,16.40
2016,08,17,00,24,16.40
2016,08,17,00,25,16.40
2016,08,17,00,26,16.40
2016,08,17,00,27,16.30
2016,08,17,00,28,16.30
2016,08,17,00,29,16.30
2016,08,17,00,30,16.30
2016,08,17,00,31,16.20
2016,08,17,00,32,16.20
2016,08,17,00,33,16.20
2016,08,17,00,34,16.20
2016,08,17,00,35,16.20
2016,08,17,00,36,16.20
2016,08,17,00,37,16.20
2016,08,17,00,38,16.20
2016,08,17,00,39,16.20
2016,08,17,00,40,16.20
2016,08,17,00,41,16.10
2016,08,17,00,42,16.10
2016,08,17,00,43,16.10
2016,08,17,00,44,16.10
2016,08,17,00,45,16.10
2016,08,17,00,46,16.10
2016,08,17,00,47,16.10
2016,08,17,00,48,16.10
2016,08,17,00,49,16.10
2016,08,17,00,50,16.10
2016,08,17,00,51,16.10
2016,08,17,00,52,16.10
2016,08,17,00,53,16.10
2016,08,17,00,54,16.10
2016,08,17,00,55,16.10
2016,08,17,00,56,16.10
2016,08,17,00,57,16.10
2016,08,17,00,58,16.10
2016,08,17,00,59,16.10
2016,08,17,01,00,15.90
2016,08,17,01,01,15.90
2016,08,17,01,02,15.90
2016,08,17,01,03,15.80
2016,08,17,01,04,15.80
2016,08,17,01,05,15.80
2016,08,17,01,06,15.70
2016,08,17,01,07,15.60
2016,08,17,01,08,15.50
2016,08,17,01,09,15.50
2016,08,17,01,10,15.40
2016,08,17,01,11,15.30
2016,08,17,01,12,15.20
2016,08,17,01,13,15.10
2016,08,17,01,14,15.00
2016,08,17,01,15,14.90
2016,08,17,01,16,14.80
2016,08,17,01,17,14.70
2016,08,17,01,18,14.70
2016,08,17,01,19,14.60
2016,08,17,01,20,14.60
2016,08,17,01,21,14.60
2016,08,17,01,22,14.60
2016,08,17,01,23,14.50
2016,08,17,01,24,14.50
2016,08,17,01,25,14.50
2016,08,17,01,26,14.50
2016,08,17,01,27,14.50
2016,08,17,01,28,14.40
2016,08,17,01,29,14.40
2016,08,17,01,30,14.30
2016,08,17,01,31,14.30
2016,08,17,01,32,14.30
2016,08,17,01,33,14.30
2016,08,17,01,34,14.30
2016,08,17,01,35,14.30
2016,08,17,01,36,14.30
2016,08,17,01,37,14.30
2016,08,17,01,38,14.30
2016,08,17,01,39,14.30
2016,08,17,01,40,14.30
2016,08,17,01,41,14.30
2016,08,17,01,42,14.30
2016,08,17,01,43,14.30
2016,08,17,01,44,14.30
2016,08,17,01,45,14.30
2016,08,17,01,46,14.30
2016,08,17,01,47,14.40
2016,08,17,01,48,14.40
2016,08,17,01,49,14.40
2016,08,17,01,50,14.40
2016,08,17,01,51,14.40
2016,08,17,01,52,14.40
2016,08,17,01,53,14.30
2016,08,17,01,54,14.30
2016,08,17,01,55,14.30
2016,08,17,01,56,14.30
2016,08,17,01,57,14.30
2016,08,17,01,58,14.30
2016,08,17,01,59,14.30
2016,08,17,02,00,14.30
2016,08,17,02,01,14.30
2016,08,17,02,02,14.30
2016,08,17,02,03,14.30
2016,08,17,02,04,14.30
2016,08,17,02,05,14.30
2016,08,17,02,06,14.30
2016,08,17,02,07,14.30
2016,08,17,02,08,14.30
2016,08,17,02,09,14.30
2016,08,17,02,10,14.20
2016,08,17,02,11,14.20
2016,08,17,02,12,14.20
2016,08,17,02,13,14.20
2016,08,17,02,14,14.30
2016,08,17,02,15,14.30
2016,08,17,02,16,14.30
2016,08,17,02,17,14.30
2016,08,17,02,18,14.30
2016,08,17,02,19,14.30
2016,08,17,02,20,14.30
2016,08,17,02,21,14.20
2016,08,17,02,22,14.20
2016,08,17,02,23,14.20
2016,08,17,02,24,14.20
2016,08,17,02,25,14.20
2016,08,17,02,26,14.20
2016,08,17,02,27,14.20
2016,08,17,02,28,14.20
2016,08,17,02,29,14.20
2016,08,17,02,30,14.10
2016,08,17,02,31,14.10
2016,08,17,02,32,14.10
2016,08,17,02,33,14.10
2016,08,17,02,34,14.10
2016,08,17,02,35,14.10
2016,08,17,02,36,14.10
2016,08,17,02,37,14.10
2016,08,17,02,38,14.10
2016,08,17,02,39,14.10
2016,08,17,02,40,14.10
2016,08,17,02,41,14.10
2016,08,17,02,42,14.10
2016,08,17,02,43,14.10
2016,08,17,02,44,14.10
2016,08,17,02,45,14.00
2016,08,17,02,46,14.00
2016,08,17,02,47,14.00
2016,08,17,02,48,14.00
2016,08,17,02,49,14.00
2016,08,17,02,50,14.00
2016,08,17,02,51,14.10
2016,08,17,02,52,14.10
2016,08,17,02,53,14.10
2016,08,17,02,54,14.10
2016,08,17,02,55,14.10
2016,08,17,02,56,14.10
2016,08,17,02,57,14.10
2016,08,17,02,58,14.10
2016,08,17,02,59,14.10
2016,08,17,03,00,14.10
2016,08,17,03,01,14.10
2016,08,17,03,02,14.10
2016,08,17,03,03,14.00
2016,08,17,03,04,14.00
2016,08,17,03,05,14.10
2016,08,17,03,06,14.00
2016,08,17,03,07,14.00
2016,08,17,03,08,14.00
2016,08,17,03,09,14.00
2016,08,17,03,10,14.00
2016,08,17,03,11,14.00
2016,08,17,03,12,14.00
2016,08,17,03,13,14.00
2016,08,17,03,14,14.00
2016,08,17,03,15,14.00
2016,08,17,03,16,14.00
2016,08,17,03,17,14.00
2016,08,17,03,18,14.00
2016,08,17,03,19,14.00
2016,08,17,03,20,14.00
2016,08,17,03,21,13.90
2016,08,17,03,22,13.90
2016,08,17,03,23,13.90
2016,08,17,03,24,13.90
2016,08,17,03,25,13.80
2016,08,17,03,26,13.80
2016,08,17,03,27,13.80
2016,08,17,03,28,13.80
2016,08,17,03,29,13.80
2016,08,17,03,30,13.80
2016,08,17,03,31,13.80
2016,08,17,03,32,13.80
2016,08,17,03,33,13.80
2016,08,17,03,34,13.80
2016,08,17,03,35,13.80
2016,08,17,03,36,13.80
2016,08,17,03,37,13.70
2016,08,17,03,38,13.70
2016,08,17,03,39,13.70
2016,08,17,03,40,13.70
2016,08,17,03,41,13.70
2016,08,17,03,42,13.70
2016,08,17,03,43,13.70
2016,08,17,03,44,13.70
2016,08,17,03,45,13.70
2016,08,17,03,46,13.70
2016,08,17,03,47,13.70
2016,08,17,03,48,13.70
2016,08,17,03,49,13.70
2016,08,17,03,50,13.70
2016,08,17,03,51,13.70
2016,08,17,03,52,13.70
2016,08,17,03,53,13.70
2016,08,17,03,54,13.70
2016,08,17,03,55,13.70
2016,08,17,03,56,13.60
2016,08,17,03,57,13.60
2016,08,17,03,58,13.60
2016,08,17,03,59,13.60
2016,08,17,04,00,13.60
2016,08,17,04,01,13.60
2016,08,17,04,02,13.60
2016,08,17,04,03,13.60
2016,08,17,04,04,13.60
2016,08,17,04,05,13.60
2016,08,17,04,06,13.60
2016,08,17,04,07,13.60
2016,08,17,04,08,13.60
2016,08,17,04,09,13.60
2016,08,17,04,10,13.60
2016,08,17,04,11,13.60
2016,08,17,04,12,13.60
2016,08,17,04,13,13.60
2016,08,17,04,14,13.60
2016,08,17,04,15,13.60
2016,08,17,04,16,13.50
2016,08,17,04,17,13.50
2016,08,17,04,18,13.50
2016,08,17,04,19,13.50
2016,08,17,04,20,13.50
2016,08,17,04,21,13.50
2016,08,17,04,22,13.50
2016,08,17,04,23,13.50
2016,08,17,04,24,13.50
2016,08,17,04,25,13.50
2016,08,17,04,26,13.40
2016,08,17,04,27,13.40
2016,08,17,04,28,13.40
2016,08,17,04,29,13.40
2016,08,17,04,30,13.40
2016,08,17,04,31,13.40
2016,08,17,04,32,13.40
2016,08,17,04,33,13.40
2016,08,17,04,34,13.40
2016,08,17,04,35,13.40
2016,08,17,04,36,13.40
2016,08,17,04,37,13.40
2016,08,17,04,38,13.30
2016,08,17,04,39,13.30
2016,08,17,04,40,13.30
2016,08,17,04,41,13.30
2016,08,17,04,42,13.30
2016,08,17,04,43,13.30
2016,08,17,04,44,13.30
2016,08,17,04,45,13.30
2016,08,17,04,46,13.30
2016,08,17,04,47,13.30
2016,08,17,04,48,13.30
2016,08,17,04,49,13.30
2016,08,17,04,50,13.30
2016,08,17,04,51,13.30
2016,08,17,04,52,13.30
2016,08,17,04,53,13.30
2016,08,17,04,54,13.30
2016,08,17,04,55,13.30
2016,08,17,04,56,13.30
2016,08,17,04,57,13.30
2016,08,17,04,58,13.30
2016,08,17,04,59,13.30
2016,08,17,05,00,13.30
2016,08,17,05,01,13.30
2016,08,17,05,02,13.30
2016,08,17,05,03,13.30
2016,08,17,05,04,13.20
2016,08,17,05,05,13.20
2016,08,17,05,06,13.20
2016,08,17,05,07,13.20
2016,08,17,05,08,13.20
2016,08,17,05,09,13.20
2016,08,17,05,10,13.20
2016,08,17,05,11,13.20
2016,08,17,05,12,13.20
2016,08,17,05,13,13.10
2016,08,17,05,14,13.10
2016,08,17,05,15,13.10
2016,08,17,05,16,13.10
2016,08,17,05,17,13.00
2016,08,17,05,18,13.00
2016,08,17,05,19,13.00
2016,08,17,05,20,13.00
2016,08,17,05,21,13.00
2016,08,17,05,22,13.00
2016,08,17,05,23,12.90
2016,08,17,05,24,12.90
2016,08,17,05,25,12.90
2016,08,17,05,26,12.90
2016,08,17,05,27,12.90
2016,08,17,05,28,12.90
2016,08,17,05,29,12.90
2016,08,17,05,30,12.80
2016,08,17,05,31,12.80
2016,08,17,05,32,12.80
2016,08,17,05,33,12.80
2016,08,17,05,34,12.80
2016,08,17,05,35,12.80
2016,08,17,05,36,12.80
2016,08,17,05,37,12.80
2016,08,17,05,38,12.80
2016,08,17,05,39,12.80
2016,08,17,05,40,12.80
2016,08,17,05,41,12.80
2016,08,17,05,42,12.80
2016,08,17,05,43,12.80
2016,08,17,05,44,12.80
2016,08,17,05,45,12.80
2016,08,17,05,46,12.80
2016,08,17,05,47,12.80
2016,08,17,05,48,12.80
2016,08,17,05,49,12.80
2016,08,17,05,50,12.80
2016,08,17,05,51,12.80
2016,08,17,05,52,12.70
2016,08,17,05,53,12.70
2016,08,17,05,54,12.70
2016,08,17,05,55,12.70
2016,08,17,05,56,12.70
2016,08,17,05,57,12.60
2016,08,17,05,58,12.60
2016,08,17,05,59,12.60
2016,08,17,06,00,12.60
2016,08,17,06,01,12.60
2016,08,17,06,02,12.60
2016,08,17,06,03,12.60
2016,08,17,06,04,12.60
2016,08,17,06,05,12.60
2016,08,17,06,06,12.60
2016,08,17,06,07,12.60
2016,08,17,06,08,12.60
2016,08,17,06,09,12.60
2016,08,17,06,10,12.50
2016,08,17,06,11,12.50
2016,08,17,06,12,12.50
2016,08,17,06,13,12.50
2016,08,17,06,14,12.50
2016,08,17,06,15,12.50
2016,08,17,06,16,12.50
2016,08,17,06,17,12.50
2016,08,17,06,18,12.40
2016,08,17,06,19,12.40
2016,08,17,06,20,12.40
2016,08,17,06,21,12.40
2016,08,17,06,22,12.40
2016,08,17,06,23,12.40
2016,08,17,06,24,12.40
2016,08,17,06,25,12.40
2016,08,17,06,26,12.40
2016,08,17,06,27,12.40
2016,08,17,06,28,12.40
2016,08,17,06,29,12.40
2016,08,17,06,30,12.40
2016,08,17,06,31,12.40
2016,08,17,06,32,12.40
2016,08,17,06,33,12.40
2016,08,17,06,34,12.40
2016,08,17,06,35,12.40
2016,08,17,06,36,12.40
2016,08,17,06,37,12.40
2016,08,17,06,38,12.40
2016,08,17,06,39,12.40
2016,08,17,06,40,12.40
2016,08,17,06,41,12.40
2016,08,17,06,42,12.40
2016,08,17,06,43,12.40
2016,08,17,06,44,12.40
2016,08,17,06,45,12.40
2016,08,17,06,46,12.40
2016,08,17,06,47,12.40
2016,08,17,06,48,12.40
2016,08,17,06,49,12.40
2016,08,17,06,50,12.40
2016,08,17,06,51,12.50
2016,08,17,06,52,12.50
2016,08,17,06,53,12.50
2016,08,17,06,54,12.50
2016,08,17,06,55,12.50
2016,08,17,06,56,12.50
2016,08,17,06,57,12.60
2016,08,17,06,58,12.60
2016,08,17,06,59,12.60
2016,08,17,07,00,12.60
2016,08,17,07,01,12.70
2016,08,17,07,02,12.70
2016,08,17,07,03,12.80
2016,08,17,07,04,12.80
2016,08,17,07,05,12.80
2016,08,17,07,06,12.80
2016,08,17,07,07,12.90
2016,08,17,07,08,12.90
2016,08,17,07,09,13.00
2016,08,17,07,10,13.00
2016,08,17,07,11,13.00
2016,08,17,07,12,13.10
2016,08,17,07,13,13.10
2016,08,17,07,14,13.20
2016,08,17,07,15,13.20
2016,08,17,07,16,13.30
2016,08,17,07,17,13.40
2016,08,17,07,18,13.50
2016,08,17,07,19,13.60
2016,08,17,07,20,13.70
2016,08,17,07,21,13.70
2016,08,17,07,22,13.90
2016,08,17,07,23,14.00
2016,08,17,07,24,14.20
2016,08,17,07,25,14.40
2016,08,17,07,26,14.50
2016,08,17,07,27,14.70
2016,08,17,07,28,14.80
2016,08,17,07,29,15.00
2016,08,17,07,30,15.10
2016,08,17,07,31,15.20
2016,08,17,07,32,15.30
2016,08,17,07,33,15.40
2016,08,17,07,34,15.50
2016,08,17,07,35,15.60
2016,08,17,07,36,15.80
2016,08,17,07,37,15.80
2016,08,17,07,38,16.00
2016,08,17,07,39,16.10
2016,08,17,07,40,16.20
2016,08,17,07,41,16.30
2016,08,17,07,42,16.40
2016,08,17,07,43,16.40
2016,08,17,07,44,16.40
2016,08,17,07,45,16.40
2016,08,17,07,46,16.40
2016,08,17,07,47,16.40
2016,08,17,07,48,16.40
2016,08,17,07,49,16.40
2016,08,17,07,50,16.40
2016,08,17,07,51,16.40
2016,08,17,07,52,16.40
2016,08,17,07,53,16.30
2016,08,17,07,54,16.30
2016,08,17,07,55,16.30
2016,08,17,07,56,16.30
2016,08,17,07,57,16.30
2016,08,17,07,58,16.30
2016,08,17,07,59,16.30
2016,08,17,08,00,16.30
2016,08,17,08,01,16.40
2016,08,17,08,02,16.40
2016,08,17,08,03,16.40
2016,08,17,08,04,16.50
2016,08,17,08,05,16.60
2016,08,17,08,06,16.70
2016,08,17,08,07,16.70
2016,08,17,08,08,16.80
2016,08,17,08,09,16.90
2016,08,17,08,10,17.10
2016,08,17,08,11,17.20
2016,08,17,08,12,17.30
2016,08,17,08,13,17.30
2016,08,17,08,14,17.40
2016,08,17,08,15,17.50
2016,08,17,08,16,17.60
2016,08,17,08,17,17.70
2016,08,17,08,18,17.80
2016,08,17,08,19,17.90
2016,08,17,08,20,17.90
2016,08,17,08,21,18.00
2016,08,17,08,22,18.10
2016,08,17,08,23,18.10
2016,08,17,08,24,18.00
2016,08,17,08,25,17.90
2016,08,17,08,26,17.70
2016,08,17,08,27,17.60
2016,08,17,08,28,17.60
2016,08,17,08,29,17.60
2016,08,17,08,30,17.60
2016,08,17,08,31,17.70
2016,08,17,08,32,17.70
2016,08,17,08,33,17.80
2016,08,17,08,34,17.80
2016,08,17,08,35,17.70
2016,08,17,08,36,17.60
2016,08,17,08,37,17.50
2016,08,17,08,38,17.50
2016,08,17,08,39,17.50
2016,08,17,08,40,17.60
2016,08,17,08,41,17.60
2016,08,17,08,42,17.70
2016,08,17,08,43,17.70
2016,08,17,08,44,17.70
2016,08,17,08,45,17.80
2016,08,17,08,46,17.90
2016,08,17,08,47,17.90
2016,08,17,08,48,17.90
2016,08,17,08,49,17.90
2016,08,17,08,50,17.90
2016,08,17,08,51,17.90
2016,08,17,08,52,17.90
2016,08,17,08,53,17.90
2016,08,17,08,54,17.80
2016,08,17,08,55,17.80
2016,08,17,08,56,17.90
2016,08,17,08,57,17.90
2016,08,17,08,58,17.90
2016,08,17,08,59,17.90
2016,08,17,09,00,17.90
2016,08,17,09,01,18.00
2016,08,17,09,02,18.10
2016,08,17,09,03,18.20
2016,08,17,09,04,18.30
2016,08,17,09,05,18.30
2016,08,17,09,06,18.30
2016,08,17,09,07,18.40
2016,08,17,09,08,18.50
2016,08,17,09,09,18.60
2016,08,17,09,10,18.70
2016,08,17,09,11,18.80
2016,08,17,09,12,18.90
2016,08,17,09,13,19.00
2016,08,17,09,14,19.10
2016,08,17,09,15,19.10
2016,08,17,09,16,19.10
2016,08,17,09,17,19.20
2016,08,17,09,18,19.30
2016,08,17,09,19,19.50
2016,08,17,09,20,19.60
2016,08,17,09,21,19.60
2016,08,17,09,22,19.70
2016,08,17,09,23,19.60
2016,08,17,09,24,19.50
2016,08,17,09,25,19.40
2016,08,17,09,26,19.40
2016,08,17,09,27,19.40
2016,08,17,09,28,19.30
2016,08,17,09,29,19.20
2016,08,17,09,30,19.10
2016,08,17,09,31,19.10
2016,08,17,09,32,19.10
2016,08,17,09,33,19.10
2016,08,17,09,34,19.00
2016,08,17,09,35,18.90
2016,08,17,09,36,18.90
2016,08,17,09,37,19.00
2016,08,17,09,38,19.10
2016,08,17,09,39,19.10
2016,08,17,09,40,19.10
2016,08,17,09,41,19.10
2016,08,17,09,42,19.20
2016,08,17,09,43,19.20
2016,08,17,09,44,19.30
2016,08,17,09,45,19.40
2016,08,17,09,46,19.50
2016,08,17,09,47,19.50
2016,08,17,09,48,19.60
2016,08,17,09,49,19.60
2016,08,17,09,50,19.60
2016,08,17,09,51,19.50
2016,08,17,09,52,19.40
2016,08,17,09,53,19.40
2016,08,17,09,54,19.40
2016,08,17,09,55,19.40
2016,08,17,09,56,19.40
2016,08,17,09,57,19.50
2016,08,17,09,58,19.60
2016,08,17,09,59,19.70
2016,08,17,10,00,19.70
2016,08,17,10,01,19.70
2016,08,17,10,02,19.70
2016,08,17,10,03,19.70
2016,08,17,10,04,19.80
2016,08,17,10,05,19.80
2016,08,17,10,06,19.90
2016,08,17,10,07,19.90
2016,08,17,10,08,19.80
2016,08,17,10,09,19.70
2016,08,17,10,10,19.60
2016,08,17,10,11,19.50
2016,08,17,10,12,19.40
2016,08,17,10,13,19.40
2016,08,17,10,14,19.50
2016,08,17,10,15,19.60
2016,08,17,10,16,19.70
2016,08,17,10,17,19.70
2016,08,17,10,18,19.70
2016,08,17,10,19,19.80
2016,08,17,10,20,19.80
2016,08,17,10,21,19.70
2016,08,17,10,22,19.80
2016,08,17,10,23,19.80
2016,08,17,10,24,19.90
2016,08,17,10,25,19.90
2016,08,17,10,26,19.90
2016,08,17,10,27,19.80
2016,08,17,10,28,19.70
2016,08,17,10,29,19.50
2016,08,17,10,30,19.60
2016,08,17,10,31,19.70
2016,08,17,10,32,19.80
2016,08,17,10,33,19.80
2016,08,17,10,34,19.90
2016,08,17,10,35,19.90
2016,08,17,10,36,19.90
2016,08,17,10,37,19.80
2016,08,17,10,38,19.80
2016,08,17,10,39,19.80
2016,08,17,10,40,19.80
2016,08,17,10,41,19.90
2016,08,17,10,42,19.90
2016,08,17,10,43,19.90
2016,08,17,10,44,20.00
2016,08,17,10,45,20.00
2016,08,17,10,46,20.10
2016,08,17,10,47,20.10
2016,08,17,10,48,20.20
2016,08,17,10,49,20.20
2016,08,17,10,50,20.20
2016,08,17,10,51,20.20
2016,08,17,10,52,20.10
2016,08,17,10,53,19.90
2016,08,17,10,54,19.90
2016,08,17,10,55,19.90
2016,08,17,10,56,19.90
2016,08,17,10,57,19.80
2016,08,17,10,58,19.90
2016,08,17,10,59,19.80
2016,08,17,11,00,19.70
2016,08,17,11,01,19.70
2016,08,17,11,02,19.80
2016,08,17,11,03,19.80
2016,08,17,11,04,19.90
2016,08,17,11,05,19.90
2016,08,17,11,06,19.90
2016,08,17,11,07,19.90
2016,08,17,11,08,19.70
2016,08,17,11,09,19.70
2016,08,17,11,10,19.80
2016,08,17,11,11,19.80
2016,08,17,11,12,19.80
2016,08,17,11,13,19.80
2016,08,17,11,14,19.80
2016,08,17,11,15,19.80
2016,08,17,11,16,19.90
2016,08,17,11,17,19.90
2016,08,17,11,18,19.90
2016,08,17,11,19,19.90
2016,08,17,11,20,19.80
2016,08,17,11,21,19.80
2016,08,17,11,22,19.80
2016,08,17,11,23,19.70
2016,08,17,11,24,19.60
2016,08,17,11,25,19.60
2016,08,17,11,26,19.60
2016,08,17,11,27,19.80
2016,08,17,11,28,19.90
2016,08,17,11,29,19.90
2016,08,17,11,30,19.90
2016,08,17,11,31,19.90
2016,08,17,11,32,19.90
2016,08,17,11,33,19.70
2016,08,17,11,34,19.70
2016,08,17,11,35,19.70
2016,08,17,11,36,19.80
2016,08,17,11,37,19.90
2016,08,17,11,38,19.90
2016,08,17,11,39,20.10
2016,08,17,11,40,20.10
2016,08,17,11,41,20.10
2016,08,17,11,42,20.10
2016,08,17,11,43,20.10
2016,08,17,11,44,20.20
2016,08,17,11,45,20.10
2016,08,17,11,46,20.20
2016,08,17,11,47,20.20
2016,08,17,11,48,20.20
2016,08,17,11,49,20.20
2016,08,17,11,50,20.20
2016,08,17,11,51,20.20
2016,08,17,11,52,20.30
2016,08,17,11,53,20.20
2016,08,17,11,54,20.30
2016,08,17,11,55,20.30
2016,08,17,11,56,20.30
2016,08,17,11,57,20.30
2016,08,17,11,58,20.50
2016,08,17,11,59,20.50
2016,08,17,12,00,20.50
2016,08,17,12,01,20.60
2016,08,17,12,02,20.60
2016,08,17,12,03,20.60
2016,08,17,12,04,20.60
2016,08,17,12,05,20.60
2016,08,17,12,06,20.50
2016,08,17,12,07,20.50
2016,08,17,12,08,20.50
2016,08,17,12,09,20.40
2016,08,17,12,10,20.40
2016,08,17,12,11,20.40
2016,08,17,12,12,20.30
2016,08,17,12,13,20.40
2016,08,17,12,14,20.60
2016,08,17,12,15,20.80
2016,08,17,12,16,20.90
2016,08,17,12,17,21.00
2016,08,17,12,18,21.10
2016,08,17,12,19,21.30
2016,08,17,12,20,21.50
2016,08,17,12,21,21.70
2016,08,17,12,22,21.90
2016,08,17,12,23,22.00
2016,08,17,12,24,22.00
2016,08,17,12,25,22.10
2016,08,17,12,26,22.10
2016,08,17,12,27,22.10
2016,08,17,12,28,22.10
2016,08,17,12,29,22.00
2016,08,17,12,30,21.90
2016,08,17,12,31,21.80
2016,08,17,12,32,21.90
2016,08,17,12,33,22.00
2016,08,17,12,34,22.10
2016,08,17,12,35,22.10
2016,08,17,12,36,22.20
2016,08,17,12,37,22.20
2016,08,17,12,38,22.20
2016,08,17,12,39,22.20
2016,08,17,12,40,22.10
2016,08,17,12,41,22.00
2016,08,17,12,42,22.00
2016,08,17,12,43,22.00
2016,08,17,12,44,22.00
2016,08,17,12,45,21.80
2016,08,17,12,46,21.80
2016,08,17,12,47,21.90
2016,08,17,12,48,21.90
2016,08,17,12,49,21.90
2016,08,17,12,50,21.60
2016,08,17,12,51,21.60
2016,08,17,12,52,21.60
2016,08,17,12,53,21.60
2016,08,17,12,54,21.60
2016,08,17,12,55,21.60
2016,08,17,12,56,21.50
2016,08,17,12,57,21.40
2016,08,17,12,58,21.30
2016,08,17,12,59,21.30
2016,08,17,13,00,21.30
2016,08,17,13,01,21.30
2016,08,17,13,02,21.30
2016,08,17,13,03,21.50
2016,08,17,13,04,21.60
2016,08,17,13,05,21.70
2016,08,17,13,06,21.70
2016,08,17,13,07,21.80
2016,08,17,13,08,21.70
2016,08,17,13,09,21.70
2016,08,17,13,10,21.70
2016,08,17,13,11,21.60
2016,08,17,13,12,21.60
2016,08,17,13,13,21.60
2016,08,17,13,14,21.60
2016,08,17,13,15,21.60
2016,08,17,13,16,21.50
2016,08,17,13,17,21.50
2016,08,17,13,18,21.60
2016,08,17,13,19,21.50
2016,08,17,13,20,21.40
2016,08,17,13,21,21.50
2016,08,17,13,22,21.60
2016,08,17,13,23,21.60
2016,08,17,13,24,21.60
2016,08,17,13,25,21.60
2016,08,17,13,26,21.70
2016,08,17,13,27,21.70
2016,08,17,13,28,21.80
2016,08,17,13,29,21.80
2016,08,17,13,30,21.80
2016,08,17,13,31,21.90
2016,08,17,13,32,22.00
2016,08,17,13,33,22.00
2016,08,17,13,34,22.00
2016,08,17,13,35,22.00
2016,08,17,13,36,22.00
2016,08,17,13,37,22.00
2016,08,17,13,38,21.90
2016,08,17,13,39,21.90
2016,08,17,13,40,21.80
2016,08,17,13,41,21.80
2016,08,17,13,42,21.80
2016,08,17,13,43,21.90
2016,08,17,13,44,21.90
2016,08,17,13,45,21.80
2016,08,17,13,46,21.70
2016,08,17,13,47,21.60
2016,08,17,13,48,21.60
2016,08,17,13,49,21.50
2016,08,17,13,50,21.40
2016,08,17,13,51,21.50
2016,08,17,13,52,21.60
2016,08,17,13,53,21.60
2016,08,17,13,54,21.60
2016,08,17,13,55,21.60
2016,08,17,13,56,21.60
2016,08,17,13,57,21.80
2016,08,17,13,58,22.00
2016,08,17,13,59,22.00
2016,08,17,14,00,22.10
2016,08,17,14,01,22.00
2016,08,17,14,02,22.00
2016,08,17,14,03,22.00
2016,08,17,14,04,22.00
2016,08,17,14,05,21.90
2016,08,17,14,06,22.00
2016,08,17,14,07,22.00
2016,08,17,14,08,22.20
2016,08,17,14,09,22.20
2016,08,17,14,10,22.20
2016,08,17,14,11,22.30
2016,08,17,14,12,22.40
2016,08,17,14,13,22.50
2016,08,17,14,14,22.40
2016,08,17,14,15,22.40
2016,08,17,14,16,22.40
2016,08,17,14,17,22.50
2016,08,17,14,18,22.50
2016,08,17,14,19,22.50
2016,08,17,14,20,22.50
2016,08,17,14,21,22.60
2016,08,17,14,22,22.70
2016,08,17,14,23,22.70
2016,08,17,14,24,22.70
2016,08,17,14,25,22.80
2016,08,17,14,26,22.90
2016,08,17,14,27,22.90
2016,08,17,14,28,22.90
2016,08,17,14,29,23.10
2016,08,17,14,30,23.20
2016,08,17,14,31,23.40
2016,08,17,14,32,23.50
2016,08,17,14,33,23.70
2016,08,17,14,34,23.90
2016,08,17,14,35,24.10
2016,08,17,14,36,24.20
2016,08,17,14,37,24.20
2016,08,17,14,38,24.30
2016,08,17,14,39,24.40
2016,08,17,14,40,24.40
2016,08,17,14,41,24.40
2016,08,17,14,42,24.40
2016,08,17,14,43,24.50
2016,08,17,14,44,24.60
2016,08,17,14,45,24.70
2016,08,17,14,46,24.60
2016,08,17,14,47,24.50
2016,08,17,14,48,24.60
2016,08,17,14,49,24.70
2016,08,17,14,50,24.80
2016,08,17,14,51,25.00
2016,08,17,14,52,25.20
2016,08,17,14,53,25.30
2016,08,17,14,54,25.40
2016,08,17,14,55,25.40
2016,08,17,14,56,25.40
2016,08,17,14,57,25.50
2016,08,17,14,58,25.50
2016,08,17,14,59,25.70
2016,08,17,15,00,25.80
2016,08,17,15,01,25.70
2016,08,17,15,02,25.50
2016,08,17,15,03,25.40
2016,08,17,15,04,25.40
2016,08,17,15,05,25.30
2016,08,17,15,06,25.20
2016,08,17,15,07,25.10
2016,08,17,15,08,25.10
2016,08,17,15,09,25.10
2016,08,17,15,10,25.00
2016,08,17,15,11,24.80
2016,08,17,15,12,24.40
2016,08,17,15,13,24.10
2016,08,17,15,14,24.00
2016,08,17,15,15,23.90
2016,08,17,15,16,23.80
2016,08,17,15,17,23.60
2016,08,17,15,18,23.40
2016,08,17,15,19,23.30
2016,08,17,15,20,23.30
2016,08,17,15,21,23.40
2016,08,17,15,22,23.40
2016,08,17,15,23,23.50
2016,08,17,15,24,23.70
2016,08,17,15,25,23.80
2016,08,17,15,26,24.00
2016,08,17,15,27,24.20
2016,08,17,15,28,24.20
2016,08,17,15,29,24.30
2016,08,17,15,30,24.40
2016,08,17,15,31,24.50
2016,08,17,15,32,24.70
2016,08,17,15,33,24.80
2016,08,17,15,34,24.90
2016,08,17,15,35,25.00
2016,08,17,15,36,25.00
2016,08,17,15,37,25.20
2016,08,17,15,38,25.30
2016,08,17,15,39,25.30
2016,08,17,15,40,25.20
2016,08,17,15,41,25.10
2016,08,17,15,42,25.20
2016,08,17,15,43,25.30
2016,08,17,15,44,25.40
2016,08,17,15,45,25.60
2016,08,17,15,46,25.80
2016,08,17,15,47,25.90
2016,08,17,15,48,25.90
2016,08,17,15,49,26.00
2016,08,17,15,50,25.90
2016,08,17,15,51,25.80
2016,08,17,15,52,25.80
2016,08,17,15,53,25.70
2016,08,17,15,54,25.60
2016,08,17,15,55,25.50
2016,08,17,15,56,25.40
2016,08,17,15,57,25.40
2016,08,17,15,58,25.30
2016,08,17,15,59,25.30
2016,08,17,16,00,25.30
2016,08,17,16,01,25.40
2016,08,17,16,02,25.50
2016,08,17,16,03,25.70
2016,08,17,16,04,25.70
2016,08,17,16,05,25.80
2016,08,17,16,06,25.90
2016,08,17,16,07,26.00
2016,08,17,16,08,26.20
2016,08,17,16,09,26.30
2016,08,17,16,10,26.30
2016,08,17,16,11,26.20
2016,08,17,16,12,26.20
2016,08,17,16,13,26.20
2016,08,17,16,14,26.10
2016,08,17,16,15,26.10
2016,08,17,16,16,26.10
2016,08,17,16,17,26.00
2016,08,17,16,18,25.80
2016,08,17,16,19,25.80
2016,08,17,16,20,25.90
2016,08,17,16,21,26.00
2016,08,17,16,22,26.20
2016,08,17,16,23,26.30
2016,08,17,16,24,26.40
2016,08,17,16,25,26.40
2016,08,17,16,26,26.30
2016,08,17,16,27,26.40
2016,08,17,16,28,26.40
2016,08,17,16,29,26.60
2016,08,17,16,30,26.60
2016,08,17,16,31,26.40
2016,08,17,16,32,26.30
2016,08,17,16,33,26.30
2016,08,17,16,34,26.10
2016,08,17,16,35,25.90
2016,08,17,16,36,25.80
2016,08,17,16,37,25.80
2016,08,17,16,38,25.70
2016,08,17,16,39,25.70
2016,08,17,16,40,25.70
2016,08,17,16,41,25.70
2016,08,17,16,42,25.70
2016,08,17,16,43,25.60
2016,08,17,16,44,25.50
2016,08,17,16,45,25.60
2016,08,17,16,46,25.60
2016,08,17,16,47,25.60
2016,08,17,16,48,25.60
2016,08,17,16,49,25.50
2016,08,17,16,50,25.50
2016,08,17,16,51,25.50
2016,08,17,16,52,25.40
2016,08,17,16,53,25.30
2016,08,17,16,54,25.10
2016,08,17,16,55,24.90
2016,08,17,16,56,24.80
2016,08,17,16,57,24.60
2016,08,17,16,58,24.50
2016,08,17,16,59,24.50
2016,08,17,17,00,24.40
2016,08,17,17,01,24.40
2016,08,17,17,02,24.50
2016,08,17,17,03,24.50
2016,08,17,17,04,24.40
2016,08,17,17,05,24.30
2016,08,17,17,06,24.20
2016,08,17,17,07,24.00
2016,08,17,17,08,23.70
2016,08,17,17,09,23.60
2016,08,17,17,10,23.50
2016,08,17,17,11,23.60
2016,08,17,17,12,23.50
2016,08,17,17,13,23.40
2016,08,17,17,14,23.40
2016,08,17,17,15,23.40
2016,08,17,17,16,23.30
2016,08,17,17,17,23.30
2016,08,17,17,18,23.30
2016,08,17,17,19,23.20